| time (UTC) | temp F | wind direction | speed MPH | gust MPH | rain 1hr in | rain 24hr in | rain mn in | humidity % | barometer mb |
| 20260507040535 | 63 | 319 | 0.0 | 5.0 | 0.00 | 0.00 | 0.00 | 76 | 1018.0 |
| 20260507035515 | 64 | 296 | 2.0 | 9.0 | 0.00 | 0.00 | 0.00 | 76 | 1017.9 |
| 20260507034516 | 64 | 310 | 4.0 | 8.0 | 0.00 | 0.00 | 0.00 | 75 | 1017.8 |
| 20260507033515 | 64 | 323 | 4.0 | 9.0 | 0.00 | 0.00 | 0.00 | 74 | 1017.6 |
| 20260507032535 | 64 | 319 | 5.0 | 10.0 | 0.00 | 0.00 | 0.00 | 74 | 1017.5 |
| 20260507031515 | 65 | 319 | 4.0 | 8.0 | 0.00 | 0.00 | 0.00 | 74 | 1017.5 |
| 20260507030516 | 65 | 305 | 4.0 | 10.0 | 0.00 | 0.00 | 0.00 | 73 | 1017.4 |
| 20260507025515 | 65 | 308 | 3.0 | 8.0 | 0.00 | 0.00 | 0.00 | 72 | 1017.3 |
| 20260507024515 | 66 | 305 | 6.0 | 11.0 | 0.00 | 0.00 | 0.00 | 71 | 1017.2 |
| 20260507023515 | 66 | 305 | 3.0 | 9.0 | 0.00 | 0.00 | 0.00 | 69 | 1017.2 |
| 20260507022515 | 67 | 321 | 4.0 | 8.0 | 0.00 | 0.00 | 0.00 | 68 | 1017.1 |
| 20260507021515 | 67 | 325 | 4.0 | 9.0 | 0.00 | 0.00 | 0.00 | 67 | 1017.1 |
| 20260507020515 | 68 | 316 | 4.0 | 9.0 | 0.00 | 0.00 | 0.00 | 66 | 1017.1 |
| 20260507015515 | 68 | 313 | 5.0 | 11.0 | 0.00 | 0.00 | 0.00 | 64 | 1017.0 |
| 20260507014515 | 68 | 324 | 6.0 | 11.0 | 0.00 | 0.00 | 0.00 | 62 | 1017.1 |
| 20260507013515 | 69 | 313 | 6.0 | 12.0 | 0.00 | 0.00 | 0.00 | 62 | 1017.0 |
| 20260507012515 | 69 | 318 | 4.0 | 12.0 | 0.00 | 0.00 | 0.00 | 64 | 1017.0 |
| 20260507011515 | 69 | 271 | 3.0 | 10.0 | 0.00 | 0.00 | 0.00 | 67 | 1017.0 |
| 20260507010535 | 70 | 270 | 5.0 | 14.0 | 0.00 | 0.00 | 0.00 | 66 | 1017.0 |
| 20260507005515 | 70 | 258 | 4.0 | 11.0 | 0.00 | 0.00 | 0.00 | 65 | 1016.9 |
| 20260507004515 | 70 | 273 | 5.0 | 12.0 | 0.00 | 0.00 | 0.00 | 64 | 1016.9 |
| 20260507003515 | 70 | 260 | 5.0 | 12.0 | 0.00 | 0.00 | 0.00 | 64 | 1016.9 |
| 20260507002515 | 71 | 281 | 6.0 | 12.0 | 0.00 | 0.00 | 0.00 | 64 | 1016.9 |
| 20260507001535 | 71 | 289 | 7.0 | 13.0 | 0.00 | 0.00 | 0.00 | 64 | 1016.8 |
| 20260507000515 | 71 | 281 | 5.0 | 12.0 | 0.00 | 0.00 | 0.00 | 63 | 1016.7 |
| 20260506235515 | 71 | 274 | 8.0 | 14.0 | 0.00 | 0.00 | 0.00 | 63 | 1016.7 |
| 20260506234515 | 72 | 274 | 5.0 | 15.0 | 0.00 | 0.00 | 0.00 | 63 | 1016.7 |
| 20260506233515 | 72 | 277 | 5.0 | 14.0 | 0.00 | 0.00 | 0.00 | 63 | 1016.6 |
| 20260506232515 | 72 | 297 | 8.0 | 13.0 | 0.00 | 0.00 | 0.00 | 62 | 1016.7 |
| 20260506231535 | 73 | 269 | 7.0 | 14.0 | 0.00 | 0.00 | 0.00 | 62 | 1016.7 |
| 20260506230517 | 73 | 280 | 8.0 | 13.0 | 0.00 | 0.00 | 0.00 | 60 | 1016.7 |
| 20260506225537 | 74 | 296 | 9.0 | 16.0 | 0.00 | 0.00 | 0.00 | 59 | 1016.7 |
| 20260506224517 | 74 | 280 | 8.0 | 15.0 | 0.00 | 0.00 | 0.00 | 58 | 1016.8 |
| 20260506223517 | 75 | 286 | 6.0 | 13.0 | 0.00 | 0.00 | 0.00 | 58 | 1016.9 |
| 20260506221016 | 77 | 287 | 7.0 | 15.0 | 0.00 | 0.00 | 0.00 | 54 | 1017.0 |
| 20260506220016 | 77 | 288 | 6.0 | 16.0 | 0.00 | 0.00 | 0.00 | 54 | 1017.1 |
| 20260506215016 | 77 | 285 | 8.0 | 17.0 | 0.00 | 0.00 | 0.00 | 53 | 1017.2 |
| 20260506214036 | 77 | 270 | 6.0 | 13.0 | 0.00 | 0.00 | 0.00 | 53 | 1017.2 |
| 20260506213016 | 77 | 276 | 6.0 | 15.0 | 0.00 | 0.00 | 0.00 | 53 | 1017.3 |
| 20260506212015 | 78 | 271 | 9.0 | 15.0 | 0.00 | 0.00 | 0.00 | 52 | 1017.3 |
| 20260506211036 | 78 | 301 | 9.0 | 14.0 | 0.00 | 0.00 | 0.00 | 52 | 1017.4 |
| 20260506210016 | 77 | 276 | 6.0 | 14.0 | 0.00 | 0.00 | 0.00 | 53 | 1017.4 |
| 20260506205036 | 78 | 286 | 9.0 | 17.0 | 0.00 | 0.00 | 0.00 | 51 | 1017.6 |
| 20260506204017 | 79 | 288 | 6.0 | 14.0 | 0.00 | 0.00 | 0.00 | 51 | 1017.6 |
| 20260506203036 | 79 | 296 | 6.0 | 15.0 | 0.00 | 0.00 | 0.00 | 51 | 1017.8 |
| 20260506202015 | 79 | 307 | 9.0 | 16.0 | 0.00 | 0.00 | 0.00 | 51 | 1017.7 |
| 20260506201015 | 78 | 276 | 5.0 | 15.0 | 0.00 | 0.00 | 0.00 | 52 | 1017.7 |
| 20260506200035 | 78 | 280 | 8.0 | 16.0 | 0.00 | 0.00 | 0.00 | 52 | 1017.8 |
| 20260506195016 | 78 | 253 | 5.0 | 14.0 | 0.00 | 0.00 | 0.00 | 51 | 1017.9 |
| 20260506194035 | 79 | 266 | 7.0 | 15.0 | 0.00 | 0.00 | 0.00 | 50 | 1017.9 |
| 20260506193136 | 81 | 269 | 5.0 | 13.0 | 0.00 | 0.00 | 0.00 | 48 | 1018.0 |
| 20260506192015 | 80 | 287 | 4.0 | 11.0 | 0.00 | 0.00 | 0.00 | 48 | 1018.1 |
| 20260506191015 | 80 | 289 | 7.0 | 15.0 | 0.00 | 0.00 | 0.00 | 49 | 1018.2 |
| 20260506190016 | 80 | 277 | 5.0 | 12.0 | 0.00 | 0.00 | 0.00 | 48 | 1018.3 |
| 20260506185036 | 80 | 304 | 7.0 | 14.0 | 0.00 | 0.00 | 0.00 | 49 | 1018.4 |
| 20260506184016 | 79 | 293 | 5.0 | 11.0 | 0.00 | 0.00 | 0.00 | 50 | 1018.4 |
| 20260506183035 | 79 | 234 | 3.0 | 8.0 | 0.00 | 0.00 | 0.00 | 50 | 1018.5 |
| 20260506182016 | 79 | 310 | 3.0 | 11.0 | 0.00 | 0.00 | 0.00 | 50 | 1018.6 |
| 20260506181016 | 79 | 296 | 2.0 | 14.0 | 0.00 | 0.00 | 0.00 | 50 | 1018.7 |
| 20260506180015 | 78 | 324 | 4.0 | 8.0 | 0.00 | 0.00 | 0.00 | 51 | 1018.7 |
| 20260506175036 | 78 | 295 | 3.0 | 13.0 | 0.00 | 0.00 | 0.00 | 50 | 1018.8 |
| 20260506174015 | 77 | 294 | 4.0 | 9.0 | 0.00 | 0.00 | 0.00 | 52 | 1018.9 |
| 20260506173036 | 76 | 301 | 4.0 | 12.0 | 0.00 | 0.00 | 0.00 | 51 | 1019.0 |
| 20260506172015 | 76 | 316 | 2.0 | 8.0 | 0.00 | 0.00 | 0.00 | 52 | 1019.0 |
| 20260506171015 | 76 | 257 | 3.0 | 8.0 | 0.00 | 0.00 | 0.00 | 51 | 1019.0 |
| 20260506170035 | 76 | 315 | 2.0 | 9.0 | 0.00 | 0.00 | 0.00 | 53 | 1019.1 |
| 20260506165036 | 74 | 332 | 3.0 | 10.0 | 0.00 | 0.00 | 0.00 | 55 | 1019.0 |
| 20260506164015 | 73 | 319 | 4.0 | 10.0 | 0.00 | 0.00 | 0.00 | 57 | 1019.0 |
| 20260506163015 | 73 | 335 | 4.0 | 9.0 | 0.00 | 0.00 | 0.00 | 57 | 1019.1 |
| 20260506162015 | 71 | 337 | 3.0 | 6.0 | 0.00 | 0.00 | 0.00 | 61 | 1019.0 |
| 20260506161035 | 69 | 216 | 3.0 | 6.0 | 0.00 | 0.00 | 0.00 | 62 | 1019.1 |
| 20260506160035 | 67 | 332 | 2.0 | 5.0 | 0.00 | 0.00 | 0.00 | 64 | 1019.1 |
| 20260506155015 | 66 | 68 | 2.0 | 6.0 | 0.00 | 0.00 | 0.00 | 65 | 1019.1 |
| 20260506154015 | 65 | 66 | 1.0 | 7.0 | 0.00 | 0.00 | 0.00 | 66 | 1019.0 |
| 20260506153015 | 65 | 82 | 2.0 | 7.0 | 0.00 | 0.00 | 0.00 | 67 | 1019.1 |
| 20260506152015 | 64 | 54 | 2.0 | 5.0 | 0.00 | 0.00 | 0.00 | 68 | 1019.2 |
| 20260506151016 | 62 | 83 | 4.0 | 8.0 | 0.00 | 0.00 | 0.00 | 69 | 1019.2 |
| 20260506150016 | 61 | 82 | 2.0 | 5.0 | 0.00 | 0.00 | 0.00 | 70 | 1019.2 |
| 20260506145015 | 60 | 83 | 4.0 | 7.0 | 0.00 | 0.01 | 0.00 | 72 | 1019.0 |
| 20260506144016 | 59 | 79 | 4.0 | 5.0 | 0.00 | 0.01 | 0.00 | 73 | 1019.1 |
| 20260506143015 | 58 | 82 | 1.0 | 4.0 | 0.00 | 0.01 | 0.00 | 74 | 1019.1 |
| 20260506142015 | 58 | 76 | 1.0 | 4.0 | 0.00 | 0.01 | 0.00 | 74 | 1019.0 |
| 20260506141015 | 57 | 81 | 0.0 | 4.0 | 0.00 | 0.01 | 0.00 | 76 | 1019.0 |
| 20260506140015 | 56 | 77 | 1.0 | 4.0 | 0.00 | 0.02 | 0.00 | 78 | 1018.9 |
| 20260506135015 | 55 | 70 | 1.0 | 4.0 | 0.00 | 0.02 | 0.00 | 79 | 1018.8 |
| 20260506134035 | 54 | 73 | 3.0 | 5.0 | 0.00 | 0.04 | 0.00 | 78 | 1018.6 |
| 20260506133035 | 54 | 75 | 2.0 | 4.0 | 0.00 | 0.07 | 0.00 | 79 | 1018.6 |
| 20260506132015 | 54 | 66 | 2.0 | 4.0 | 0.00 | 0.07 | 0.00 | 78 | 1018.5 |
| 20260506131015 | 54 | 29 | 2.0 | 4.0 | 0.00 | 0.07 | 0.00 | 79 | 1018.4 |
| 20260506130015 | 55 | 21 | 2.0 | 4.0 | 0.00 | 0.07 | 0.00 | 78 | 1018.3 |
| 20260506125017 | 55 | 7 | 2.0 | 3.0 | 0.00 | 0.07 | 0.00 | 78 | 1018.2 |
| 20260506124017 | 55 | 357 | 1.0 | 3.0 | 0.00 | 0.07 | 0.00 | 78 | 1018.2 |
| 20260506123017 | 55 | 355 | 0.0 | 3.0 | 0.00 | 0.07 | 0.00 | 78 | 1018.2 |
| 20260506122017 | 55 | 0.0 | 0.0 | 0.00 | 0.07 | 0.00 | 78 | 1018.1 | |
| 20260506121017 | 55 | 0.0 | 0.0 | 0.00 | 0.07 | 0.00 | 78 | 1018.0 | |
| 20260506120017 | 56 | 0.0 | 0.0 | 0.00 | 0.07 | 0.00 | 78 | 1018.0 | |
| 20260506115017 | 56 | 0.0 | 0.0 | 0.00 | 0.07 | 0.00 | 78 | 1018.0 | |
| 20260506114017 | 56 | 0.0 | 0.0 | 0.00 | 0.08 | 0.00 | 77 | 1018.0 | |
| 20260506113017 | 56 | 0.0 | 0.0 | 0.00 | 0.08 | 0.00 | 77 | 1018.1 | |
| 20260506112017 | 56 | 0.0 | 1.0 | 0.00 | 0.08 | 0.00 | 77 | 1018.0 | |
| 20260506111018 | 56 | 338 | 0.0 | 2.0 | 0.00 | 0.08 | 0.00 | 77 | 1018.0 |
| 20260506110016 | 56 | 0.0 | 0.0 | 0.00 | 0.08 | 0.00 | 77 | 1018.0 | |
| 20260506105035 | 56 | 0.0 | 0.0 | 0.00 | 0.08 | 0.00 | 77 | 1018.0 | |
| 20260506104037 | 56 | 0.0 | 0.0 | 0.00 | 0.08 | 0.00 | 77 | 1018.0 | |
| 20260506103016 | 56 | 0.0 | 0.0 | 0.00 | 0.08 | 0.00 | 78 | 1018.0 | |
| 20260506102016 | 56 | 0.0 | 0.0 | 0.00 | 0.08 | 0.00 | 78 | 1018.0 | |
| 20260506101016 | 56 | 0.0 | 0.0 | 0.00 | 0.08 | 0.00 | 78 | 1017.9 | |
| 20260506100017 | 56 | 0.0 | 0.0 | 0.00 | 0.08 | 0.00 | 78 | 1017.9 | |
| 20260506095018 | 55 | 0.0 | 0.0 | 0.00 | 0.08 | 0.00 | 78 | 1017.9 | |
| 20260506094017 | 55 | 0.0 | 0.0 | 0.00 | 0.08 | 0.00 | 78 | 1017.9 | |
| 20260506093017 | 55 | 0.0 | 0.0 | 0.00 | 0.08 | 0.00 | 78 | 1017.8 | |
| 20260506092016 | 56 | 0.0 | 0.0 | 0.00 | 0.08 | 0.00 | 78 | 1017.8 | |
| 20260506091017 | 56 | 0.0 | 0.0 | 0.00 | 0.08 | 0.00 | 78 | 1018.0 | |
| 20260506090016 | 56 | 0.0 | 0.0 | 0.00 | 0.09 | 0.00 | 77 | 1018.1 | |
| 20260506085016 | 56 | 0.0 | 0.0 | 0.00 | 0.09 | 0.00 | 77 | 1018.3 | |
| 20260506084016 | 56 | 0.0 | 0.0 | 0.00 | 0.09 | 0.00 | 77 | 1018.4 | |
| 20260506083017 | 56 | 0.0 | 0.0 | 0.00 | 0.09 | 0.00 | 78 | 1018.5 | |
| 20260506082036 | 56 | 0.0 | 0.0 | 0.00 | 0.09 | 0.00 | 77 | 1018.5 | |
| 20260506081016 | 56 | 0.0 | 0.0 | 0.00 | 0.10 | 0.00 | 77 | 1018.6 | |
| 20260506073036 | 57 | 0.0 | 0.0 | 0.00 | 0.17 | 0.00 | 76 | 1018.8 | |
| 20260506072016 | 57 | 0.0 | 0.0 | 0.00 | 0.18 | 0.00 | 76 | 1018.8 | |
| 20260506071016 | 57 | 0.0 | 0.0 | 0.00 | 0.18 | 0.00 | 76 | 1018.8 | |
| 20260506062015 | 58 | 0.0 | 0.0 | 0.00 | 0.18 | 0.18 | 74 | 1018.5 | |
| 20260506061015 | 58 | 0.0 | 0.0 | 0.00 | 0.18 | 0.18 | 74 | 1018.4 | |
| 20260506051017 | 59 | 303 | 2.0 | 5.0 | 0.00 | 0.18 | 0.18 | 72 | 1018.3 |
| 20260506045017 | 60 | 296 | 1.0 | 4.0 | 0.00 | 0.18 | 0.18 | 72 | 1018.1 |
| 20260506044017 | 60 | 297 | 2.0 | 6.0 | 0.00 | 0.18 | 0.18 | 71 | 1018.0 |
| 20260506043037 | 60 | 300 | 1.0 | 7.0 | 0.00 | 0.18 | 0.18 | 71 | 1017.9 |
| 20260506042016 | 60 | 287 | 1.0 | 4.0 | 0.00 | 0.18 | 0.18 | 70 | 1017.7 |
| 20260506041017 | 60 | 290 | 0.0 | 4.0 | 0.00 | 0.18 | 0.18 | 70 | 1017.5 |